sat.trackr.live / text

‹ back to catalog

FLOCK 4H-12

NORAD 66715 · 2025-276BB

PAYLOAD ACTIVE UNKNOWN

§ Identity

Operator
Country
US
Launch date
2025-11-28
Launch site
AFWTR
Launch vehicle
Mass (kg)
RCS (m²)

Purposes: earth_obs

External: N2YO · Heavens-Above · Gunter

§ Orbital elements

Epoch: 2026-09-19T23:45:51.003360Z

Period
94.64 min
Inclination
97.4113°
Eccentricity
0.0002333
Mean motion
15.21543555 rev/d
Perigee alt
499.6 km
Apogee alt
502.8 km
Semi-major
6,879.3 km
B*
1.4564e-4
RAAN
335.2121°
Arg perigee
36.7403°
Mean anomaly
323.3992°
Rev number
4,515

§ Raw data

FLOCK 4H-121 66715U 25276BB  26262.99017365  .00003212  00000+0  14564-3 0  99952 66715  97.4113 335.2121 0002333  36.7403 323.3992 15.21543555 45155

JSON: /api/v1/satellites/66715 · /tle

For live sub-satellite position, see the globe view (requires WebGL).

§ Visibility from observer

Set your observer location to see the next 7 days of passes ≥ 10°. The values pass through the URL so the page stays shareable.

No JS? Fill the form by hand. The geolocation button needs JavaScript.